Location: Unspecified
(0.0000°N, 0.0000°E)
Time: 18:40:48
(UTC+00:00)

Vanguard 2 - Visible Passes

Search period start: 18 April 2014 00:00
Search period end: 28 April 2014 00:00
Orbit: 555 x 2949 km, 32.9° (Epoch: 18 April)

Date Brightness Start Highest point End Pass type
(mag) Time Alt. Az. Time Alt. Az. Time Alt. Az.
18 Apr 11.6 00:52:16 12° ENE 00:52:16 12° ENE 00:52:44 10° ENE visible
18 Apr 10.2 02:53:48 44° N 02:53:48 44° N 03:01:49 10° NE visible
18 Apr 10.9 04:57:16 10° WNW 05:02:09 13° NW 05:06:17 10° N visible
18 Apr 11.3 20:20:00 10° SSW 20:27:40 17° SSE 20:27:40 17° SSE visible
18 Apr 11.8 22:28:58 10° SSW 22:29:11 11° SSW 22:29:11 11° SSW visible
19 Apr 11.3 01:10:35 18° NE 01:10:35 18° NE 01:12:46 10° NE visible
19 Apr 10.4 03:12:06 36° NNW 03:12:06 36° NNW 03:21:01 10° NNE visible
19 Apr 11.2 20:39:22 10° SSW 20:45:57 20° S 20:45:57 20° S visible
20 Apr 11.1 01:28:49 25° NE 01:28:49 25° NE 01:32:32 10° NE visible
20 Apr 10.6 03:30:20 27° NW 03:30:48 27° NW 03:40:00 10° NNE visible
20 Apr 11.3 18:52:56 10° S 18:55:13 11° SSE 18:57:38 10° SSE visible
20 Apr 11.2 20:58:39 10° SSW 21:04:18 22° S 21:04:18 22° S visible
21 Apr 10.9 01:46:58 30° NNE 01:46:58 30° NNE 01:52:05 10° NE visible
21 Apr 10.9 03:48:28 19° NW 03:51:04 20° NNW 03:58:43 10° N visible
21 Apr 11.2 19:11:05 10° S 19:16:37 13° SSE 19:21:10 11° SE visible
21 Apr 11.2 21:17:56 10° SSW 21:22:42 22° SSW 21:22:42 22° SSW visible
22 Apr 10.8 02:05:02 32° N 02:05:02 32° N 02:11:26 10° NNE visible
22 Apr 11.1 04:06:32 11° NW 04:11:37 14° NNW 04:16:59 10° N visible
22 Apr 11.1 19:29:49 10° S 19:37:45 17° SSE 19:39:37 17° SE visible
22 Apr 11.2 21:37:16 10° SW 21:41:10 22° SSW 21:41:10 22° SSW visible
23 Apr 11.7 00:21:31 11° NE 00:21:31 11° NE 00:21:50 10° NE visible
23 Apr 10.8 02:23:01 30° N 02:23:01 30° N 02:30:38 10° NNE visible
23 Apr 10.9 19:48:43 10° SSW 19:58:09 23° SSE 19:58:09 23° SSE visible
23 Apr 11.3 21:56:43 10° SW 21:59:43 20° SW 21:59:43 20° SW visible
24 Apr 11.5 00:39:26 17° NE 00:39:26 17° NE 00:41:32 10° NE visible
24 Apr 11.0 02:40:55 26° NNW 02:40:55 26° NNW 02:49:41 10° NNE visible
24 Apr 10.7 20:07:44 10° SSW 20:16:47 29° SSE 20:16:47 29° SSE visible
24 Apr 11.5 22:16:19 10° SW 22:18:21 17° SW 22:18:21 17° SW visible
25 Apr 11.3 00:57:16 22° NNE 00:57:16 22° NNE 01:01:02 10° NE visible
25 Apr 11.2 02:58:45 19° NW 02:59:52 20° NNW 03:08:37 10° NNE visible
25 Apr 11.0 18:21:59 10° S 18:25:58 12° SSE 18:30:29 10° SE visible
25 Apr 10.5 20:26:52 10° SSW 20:35:32 35° S 20:35:32 35° S visible
25 Apr 11.6 22:36:07 10° SW 22:37:06 13° SW 22:37:06 13° SW visible
26 Apr 11.2 01:15:00 25° NNE 01:15:00 25° NNE 01:20:23 10° NNE visible
26 Apr 11.4 03:16:29 13° NW 03:20:47 15° NNW 03:27:21 10° N visible
26 Apr 10.8 18:39:50 10° S 18:46:41 17° SSE 18:52:49 13° ESE visible
26 Apr 10.4 20:46:08 10° SW 20:54:24 41° S 20:54:24 41° S visible
27 Apr 11.2 01:32:39 26° N 01:32:39 26° N 01:39:39 10° NNE visible
27 Apr 11.5 03:37:56 10° NW 03:42:00 11° NNW 03:45:42 10° N visible
27 Apr 10.6 18:58:24 10° SSW 19:07:04 23° SE 19:11:50 20° ESE visible
27 Apr 10.4 21:05:33 10° SW 21:13:25 44° SSW 21:13:25 44° SSW visible
27 Apr 11.7 23:48:45 13° NE 23:48:45 13° NE 23:49:43 10° NE visible
